Back to catalog

STARLINK-3642

AliveCommunicationsVLEO
NORAD 51989·PAYLOAD·🇺🇸 United States

Launched Mar 9, 2022 from Cape Canaveral Space Force Station

Loading…

Next Passes (next 24 hours)

TLE

FreshSource: CelesTrak SupGP

Epoch: Sep 14, 2026, 21:06 UTC

1 51989C 22025AK  26257.87965278  .00044707  00000+0  13204-2 0  2577
2 51989  53.1568 253.9276 0001300  79.2796 119.9849 15.34380467    13

Track STARLINK-3642 in real time with AllMySat

Download on the App Store